[[{"header":{"parameterUnit":"m.s-1","parameterCategory":1,"la1":30.2991,"la2":30.254,"lo1":-89.0895,"lo2":-89.0444,"dy":0.0017,"dx":0.0017,"nx":28,"ny":28,"refTime":"2024-07-12T09:00:00:Z","depth":0,"parameterNumber":2,"parameterNumberName":"U-component_of_WINDS"},"data":[0,0,0,0,0,0,0,0,0,0,0,0,0,0,0,0,0,0,0,0,0,0,0,0,0,0,0,0,0,0,0,0,0,0,0,0,0,0,0,0,0,0,0,0,0,0,0,0,0,0,0,0,0,0,0,0,0,0,2.4842,2.4843,0,2.4969,2.4971,2.4972,2.4956,2.4954,2.4952,2.495,2.5083,2.5089,2.5094,0,0,0,0,0,0,0,0,0,0,0,0,0,2.4584,2.4589,2.4841,2.4843,2.4845,2.4969,2.4971,2.4973,2.4957,2.4954,2.4952,2.4949,2.5082,2.5088,2.5095,0,0,0,0,0,0,0,0,0,0,0,0,0,2.4703,2.4591,2.4841,2.4852,2.4854,2.4969,2.4971,2.4973,2.4957,2.4954,2.4951,2.4948,2.5079,2.5087,2.5096,2.5209,0,0,2.5121,2.5124,0,0,0,0,0,0,0,0,2.4696,2.4712,2.4849,2.4851,2.4854,2.4944,2.4929,2.5052,2.4958,2.4918,2.495,2.4947,2.504,2.5051,2.5082,2.5215,2.5221,2.5121,2.5126,2.513,2.5132,0,0,0,0,0,0,0,2.4688,2.4706,2.4892,2.4851,2.4854,2.485,2.4864,2.4952,2.4995,2.4921,2.492,2.4936,2.504,2.5074,2.5085,2.5223,2.5121,2.5128,2.5134,2.5137,2.5453,2.5456,0,0,0,0,0,0,2.4677,2.47,2.4888,2.4896,2.4765,2.4857,2.4872,2.4918,2.4994,2.5002,2.4938,2.4935,2.5061,2.5075,2.5089,2.5225,2.513,2.5138,2.5142,2.5449,2.5453,2.5457,0,0,0,0,0,0,2.4671,2.4694,2.4883,2.4798,2.4821,2.4865,2.4917,2.4922,2.4956,2.5007,2.5014,2.4965,2.5059,2.5078,2.5178,2.5229,2.5141,2.5149,2.5445,2.545,2.5455,2.5498,0,0,0,0,0,0,2.4664,2.4692,2.4735,2.4799,2.4826,2.497,2.492,2.4927,2.4969,2.4966,2.5033,2.5041,2.5058,2.5166,2.5187,2.5239,2.5155,2.5441,2.5448,2.5454,2.5492,2.5504,2.5514,0,0,0,0,0,2.4655,2.4743,2.4737,2.476,2.4881,2.4973,2.4988,2.5005,2.4974,2.5017,2.505,2.5039,2.5221,2.5177,2.52,2.5255,2.5438,2.5446,2.5453,2.5487,2.5502,2.5514,0,0,0,0,0,0,2.4686,2.4752,2.4746,2.4858,2.4909,2.497,2.5026,2.502,2.5083,2.5077,2.5096,2.5112,2.5213,2.5245,2.5194,2.5368,2.5325,2.5338,2.5343,2.5357,2.5368,2.5357,2.5162,0,0,0,0,0,2.4705,2.4774,2.4828,2.4921,2.4947,2.4982,2.5023,2.5031,2.5086,2.5108,2.5148,2.5202,2.5271,2.5316,2.5383,2.5497,2.551,2.5546,2.5557,2.5566,2.5576,2.5637,2.5653,2.5483,2.5483,2.5482,0,0,2.4747,2.4792,2.4834,2.4928,2.497,2.5039,2.5001,2.5077,2.5129,2.512,2.5216,2.5248,2.5309,2.5416,2.5466,2.5446,2.5626,2.5576,2.5583,2.5588,2.5647,2.5663,2.5677,2.5488,2.5487,2.5486,0,0,2.4858,2.4899,2.498,2.5022,2.5084,2.5106,2.5125,2.5186,2.5206,2.5303,2.5297,2.536,2.5479,2.5522,2.556,2.5685,2.5677,2.5706,2.5763,2.5822,2.5835,2.5847,2.589,2.5905,2.5717,2.5717,2.5717,0,2.4902,2.5007,2.5023,2.5099,2.514,2.5134,2.5215,2.5255,2.5337,2.5365,2.5341,2.5489,2.553,2.5646,2.5677,2.5708,2.573,2.5698,2.5832,2.5844,2.5856,2.5896,2.5913,2.572,2.572,2.5719,2.5719,0,2.5057,2.513,2.5188,2.5264,2.5312,2.5391,2.5418,2.5465,2.5469,2.5494,2.5592,2.5641,2.5716,2.5744,2.575,2.5861,2.5846,2.5828,2.5785,2.5874,2.5913,2.5929,2.5724,2.5723,2.5722,2.5722,0,0,2.5192,2.5274,2.5295,2.5328,2.5396,2.5453,2.5531,2.5603,2.5642,2.5698,2.5763,2.5863,2.5845,2.5888,2.5898,2.595,2.6043,2.5924,2.5926,2.5943,2.6166,2.6179,2.6197,2.6039,2.6042,2.6044,2.616,0,2.5307,2.5444,2.546,2.5582,2.5648,2.5642,2.571,2.5758,2.5783,2.5843,2.5871,2.5941,2.5913,2.5938,2.599,2.6021,2.6088,2.6013,2.6099,2.6102,2.6081,2.6217,2.6231,2.6338,2.6176,2.6179,2.6181,0,2.5461,2.5519,2.5647,2.5703,2.5732,2.5792,2.5858,2.5916,2.5971,2.5985,2.6032,2.6035,2.6115,2.607,2.618,2.6128,2.6164,2.6185,2.619,2.6197,2.6145,2.6227,2.6373,2.6389,2.6205,2.6203,2.6201,0,2.5544,2.5655,2.5745,2.5774,2.5842,2.5884,2.5915,2.5966,2.6008,2.6066,2.6093,2.6161,2.6197,2.625,2.6271,2.6236,2.6379,2.6336,2.6392,2.6391,2.6421,2.6419,2.6574,2.6448,2.6447,2.6447,2.6447,0,2.5671,2.5749,2.5782,2.5837,2.5924,2.5941,2.6027,2.6056,2.6101,2.6162,2.6162,2.6219,2.6244,2.6305,2.6322,2.6409,2.6427,2.644,2.6443,2.6439,2.6437,2.6461,2.6454,2.6451,2.645,2.645,2.6449,0,2.5777,2.5803,2.59,2.5956,2.5972,2.6033,2.6081,2.6134,2.6158,2.6234,2.6253,2.6291,2.6362,2.6388,2.6476,2.6488,2.6588,2.6586,2.6569,2.6569,2.6623,2.6617,2.6798,2.6822,2.6682,2.6683,2.6684,0,2.5856,2.5915,2.5976,2.6016,2.6047,2.6112,2.6154,2.6173,2.6217,2.6282,2.6327,2.6398,2.6455,2.657,2.6605,2.6672,2.667,2.6729,2.668,2.6673,2.6669,2.6664,2.6669,2.6738,2.6739,2.674,2.6741,0,2.5992,2.6001,2.606,2.6124,2.6174,2.6225,2.6275,2.6308,2.6335,2.6384,2.6456,2.65,2.6588,2.6658,2.6726,2.6758,2.6754,2.6756,2.6773,2.6768,2.6754,2.676,2.6591,2.6752,2.6751,2.675,2.675,2.6749,2.6085,2.6137,2.6187,2.6253,2.6292,2.6338,2.639,2.6419,2.648,2.6552,2.656,2.6637,2.6688,2.6779,2.6813,2.6874,2.6858,2.6882,2.6888,2.6893,2.6895,2.6746,2.6887,2.6886,2.6886,2.6886,2.6886,0,2.6219,2.6251,2.6311,2.638,2.6431,2.6422,2.6477,2.6521,2.6588,2.6636,2.6692,2.6773,2.6841,2.6881,2.6948,2.6988,2.6988,2.7005,2.7002,2.7009,2.6907,2.6885,2.7004,2.7004,2.7004,2.7004,2.7004,2.7004,2.6295,2.638,2.6395,2.65,2.6531,2.6605,2.6637,2.6679,2.6717,2.6808,2.6863,2.6888,2.6933,2.7003,2.7064,2.7074,2.7098,2.7116,2.7124,2.7028,2.7016,2.7004,2.6984,2.7122,2.7122,2.7221,2.7222,2.7222]},{"header":{"parameterUnit":"m.s-1","parameterCategory":1,"la1":30.2991,"la2":30.254,"lo1":-89.0895,"lo2":-89.0444,"dy":0.0017,"dx":0.0017,"nx":28,"ny":28,"refTime":"2024-07-12T09:00:00:Z","depth":0,"parameterNumber":3,"parameterNumberName":"V-component_of_WINDS"},"data":[0,0,0,0,0,0,0,0,0,0,0,0,0,0,0,0,0,0,0,0,0,0,0,0,0,0,0,0,0,0,0,0,0,0,0,0,0,0,0,0,0,0,0,0,0,0,0,0,0,0,0,0,0,0,0,0,0,0,0.5012,0.5013,0,0.5103,0.5104,0.5105,0.5113,0.5112,0.5111,0.5111,0.5205,0.5209,0.5212,0,0,0,0,0,0,0,0,0,0,0,0,0,0.4845,0.4848,0.5012,0.5013,0.5014,0.5103,0.5104,0.5105,0.5114,0.5112,0.5111,0.511,0.5204,0.5208,0.5212,0,0,0,0,0,0,0,0,0,0,0,0,0,0.4925,0.4849,0.5012,0.5029,0.5031,0.5102,0.5104,0.5105,0.5114,0.5112,0.5111,0.511,0.5203,0.5208,0.5213,0.5273,0,0,0.5228,0.5231,0,0,0,0,0,0,0,0,0.492,0.4931,0.5025,0.5028,0.5031,0.5095,0.508,0.5162,0.5114,0.5083,0.5111,0.5109,0.517,0.5178,0.5198,0.5278,0.5282,0.5229,0.5232,0.5234,0.5236,0,0,0,0,0,0,0,0.4915,0.4927,0.5048,0.5027,0.503,0.5032,0.5042,0.5095,0.5133,0.5085,0.5086,0.5097,0.5171,0.5193,0.52,0.5283,0.5229,0.5233,0.5237,0.5239,0.5415,0.5417,0,0,0,0,0,0,0.4906,0.4922,0.5045,0.5051,0.4971,0.5036,0.5047,0.5076,0.5133,0.514,0.5098,0.5097,0.5185,0.5194,0.5204,0.5277,0.5234,0.5239,0.5242,0.5414,0.5416,0.5418,0,0,0,0,0,0,0.4902,0.4917,0.5041,0.4987,0.5003,0.5041,0.5073,0.5079,0.51,0.5142,0.5149,0.5113,0.5184,0.5196,0.5255,0.5281,0.5241,0.5246,0.5412,0.5414,0.5417,0.5426,0,0,0,0,0,0,0.4897,0.4915,0.4939,0.4987,0.5006,0.5092,0.5075,0.5081,0.5109,0.5109,0.5158,0.5165,0.5184,0.5248,0.5261,0.5287,0.525,0.541,0.5413,0.5416,0.5424,0.5429,0.5433,0,0,0,0,0,0.4892,0.4939,0.494,0.4955,0.5036,0.5093,0.5104,0.5124,0.5111,0.5135,0.5161,0.5164,0.5276,0.5254,0.5268,0.5297,0.5408,0.5412,0.5416,0.5422,0.5428,0.5433,0,0,0,0,0,0,0.4894,0.4946,0.4948,0.5012,0.5048,0.5095,0.5126,0.513,0.5171,0.5169,0.5192,0.5203,0.5261,0.5285,0.5259,0.5357,0.5341,0.5347,0.534,0.5346,0.5351,0.5344,0.5254,0,0,0,0,0,0.4902,0.4944,0.4987,0.5039,0.5057,0.5088,0.5114,0.5126,0.5164,0.518,0.5211,0.5248,0.5292,0.532,0.5363,0.5426,0.5437,0.5453,0.5457,0.5461,0.5467,0.5501,0.5509,0.543,0.543,0.5429,0,0,0.4919,0.4952,0.4978,0.5041,0.507,0.5113,0.5101,0.5147,0.5179,0.5187,0.5245,0.5268,0.5311,0.5373,0.5401,0.5394,0.5491,0.5466,0.5468,0.5472,0.5506,0.5513,0.552,0.5432,0.5432,0.5431,0,0,0.4972,0.5002,0.5048,0.5077,0.5121,0.5141,0.5152,0.5197,0.5213,0.5271,0.5277,0.5315,0.539,0.542,0.5445,0.5506,0.551,0.5519,0.5543,0.5577,0.5583,0.5588,0.561,0.5617,0.5525,0.5525,0.5525,0,0.4988,0.5053,0.5072,0.5117,0.5144,0.5152,0.5199,0.5226,0.5282,0.53,0.5291,0.5383,0.5413,0.5481,0.5496,0.5516,0.5529,0.5515,0.558,0.5586,0.5592,0.5612,0.5621,0.5526,0.5526,0.5526,0.5525,0,0.507,0.5115,0.5147,0.5199,0.523,0.5276,0.5301,0.533,0.5338,0.5359,0.5416,0.5452,0.5501,0.5518,0.5527,0.5586,0.558,0.5575,0.5559,0.56,0.562,0.5628,0.5527,0.5527,0.5526,0.5526,0,0,0.513,0.519,0.5202,0.5225,0.5272,0.5307,0.5353,0.54,0.5424,0.5461,0.55,0.5561,0.5556,0.5584,0.5597,0.5626,0.5671,0.5617,0.5619,0.5626,0.5738,0.5742,0.5751,0.5673,0.5675,0.5676,0.5734,0,0.5189,0.527,0.5287,0.5357,0.5398,0.5404,0.5444,0.5477,0.5497,0.5534,0.5556,0.5599,0.5589,0.5606,0.5635,0.566,0.5694,0.5656,0.5709,0.5711,0.5699,0.5761,0.5766,0.582,0.5742,0.5744,0.5745,0,0.5269,0.5306,0.5381,0.5421,0.5439,0.5474,0.5517,0.5553,0.559,0.5603,0.5633,0.5641,0.5688,0.5668,0.5733,0.5707,0.5729,0.5744,0.5747,0.5753,0.5731,0.577,0.5838,0.5846,0.5757,0.5756,0.5755,0,0.5304,0.5374,0.5427,0.5447,0.5495,0.552,0.5541,0.5577,0.5603,0.5641,0.5658,0.5701,0.5725,0.5757,0.5777,0.5761,0.584,0.5822,0.5851,0.5851,0.5869,0.5868,0.5942,0.5882,0.5882,0.5882,0.5882,0,0.5369,0.5414,0.5443,0.5476,0.5526,0.5545,0.5594,0.5615,0.5646,0.5683,0.569,0.5725,0.5748,0.5785,0.5801,0.5851,0.5862,0.5873,0.5877,0.5873,0.5872,0.5889,0.5886,0.5884,0.5884,0.5883,0.5883,0,0.5418,0.544,0.5498,0.5538,0.5549,0.5584,0.5619,0.5651,0.5669,0.5715,0.5727,0.5757,0.5801,0.5823,0.5878,0.5888,0.5945,0.5947,0.5933,0.5934,0.5962,0.5959,0.6051,0.6063,0.5995,0.5996,0.5996,0,0.5458,0.5493,0.5536,0.5561,0.5582,0.5622,0.5648,0.5667,0.5694,0.5738,0.5764,0.5808,0.5844,0.5914,0.594,0.5982,0.5985,0.6013,0.5991,0.5985,0.5985,0.5983,0.5986,0.6018,0.6019,0.6019,0.6019,0,0.5527,0.5535,0.5573,0.5614,0.5645,0.5678,0.5711,0.5731,0.5754,0.5784,0.5829,0.5857,0.5912,0.5955,0.5998,0.602,0.6024,0.6026,0.6035,0.6032,0.6022,0.6027,0.5944,0.6024,0.6024,0.6023,0.6023,0.6023,0.5573,0.5603,0.5638,0.5679,0.5705,0.5735,0.5766,0.5788,0.5825,0.5871,0.5879,0.5926,0.5961,0.6019,0.6042,0.6078,0.6072,0.6085,0.6089,0.6092,0.6093,0.6015,0.6086,0.6086,0.6086,0.6086,0.6086,0,0.5642,0.5664,0.5701,0.5746,0.5778,0.5777,0.5813,0.584,0.5881,0.5912,0.5947,0.5997,0.6039,0.6067,0.6109,0.6133,0.6136,0.6143,0.6142,0.6147,0.6096,0.6084,0.6141,0.6141,0.6141,0.614,0.614,0.614,0.5682,0.5732,0.5744,0.5808,0.583,0.5875,0.5895,0.5923,0.5948,0.6003,0.6037,0.6055,0.6085,0.6129,0.6167,0.6174,0.6189,0.6197,0.6204,0.6157,0.6151,0.6145,0.6134,0.62,0.62,0.6252,0.6252,0.6253]}]]